Orbital Elements
Epoch 2014 Dec. 9.0 TT = JDT 2457000.5
T 2014 Nov. 19.24002 TT MPCW
q 1.3454253 (2000.0) P Q
z +0.0055771 Peri. 55.64923 -0.92588745 -0.33872079
+/-0.0000035 Node 104.05137 +0.26440666 -0.89733193
e 0.9924964 Incl. 9.93293 +0.26985469 -0.28295518
From 456 observations 2014 Sept. 5-2015 July 9, mean residual 0".6.
|